[[{"header":{"parameterUnit":"m.s-1","parameterCategory":2,"la1":30.2991,"la2":30.254,"lo1":-89.0895,"lo2":-89.0444,"dy":0.0017,"dx":0.0017,"nx":28,"ny":28,"refTime":"2024-07-16T03:00:00:Z","depth":"0","parameterNumber":2,"parameterNumberName":"U-component_of_CURRENTS"},"data":[0,0,0,0,0,0,0,0,0,0,0,0,0,0,0,0,0,0,0,0,0,0,0,0,0,0,0,0,0,0,0,0,0,0,0,0,0,0,0,0,0,0,0,0,0,0,0,0,0,0,0,0,0,0,0,0,0,0,0.4278,0.4279,0,0.4386,0.4387,0.4388,0.4388,0.4387,0.4385,0.4384,0.4473,0.4477,0.448,0,0,0,0,0,0,0,0,0,0,0,0,0,0.4049,0.4053,0.4278,0.4279,0.4281,0.4386,0.4387,0.4389,0.4388,0.4387,0.4385,0.4384,0.4472,0.4476,0.4481,0,0,0,0,0,0,0,0,0,0,0,0,0,0.4151,0.4055,0.4278,0.4294,0.4297,0.4386,0.4387,0.4389,0.4389,0.4387,0.4385,0.4383,0.4471,0.4476,0.4481,0.4555,0,0,0.4498,0.45,0,0,0,0,0,0,0,0,0.4145,0.4159,0.429,0.4293,0.4296,0.4372,0.4339,0.4444,0.4389,0.4353,0.4384,0.4382,0.444,0.4448,0.4471,0.4559,0.4563,0.4498,0.4502,0.4504,0.4506,0,0,0,0,0,0,0,0.4138,0.4155,0.432,0.4292,0.4296,0.4288,0.4301,0.4359,0.4405,0.4356,0.4356,0.437,0.4441,0.4466,0.4474,0.4564,0.4498,0.4503,0.4506,0.4509,0.4763,0.4766,0,0,0,0,0,0,0.4132,0.4149,0.4316,0.4323,0.4215,0.4294,0.4308,0.4349,0.4405,0.4412,0.4372,0.437,0.4458,0.4467,0.4477,0.4604,0.4504,0.4509,0.4512,0.4759,0.4764,0.4767,0,0,0,0,0,0,0.4127,0.4147,0.4312,0.4237,0.4257,0.4301,0.4346,0.4352,0.4385,0.4418,0.4423,0.4398,0.4457,0.4469,0.4571,0.4605,0.4512,0.4516,0.4755,0.4761,0.4766,0.4835,0,0,0,0,0,0,0.412,0.4145,0.4177,0.4238,0.4262,0.4438,0.4349,0.4356,0.4396,0.4395,0.4443,0.4448,0.4456,0.4563,0.4576,0.4611,0.4521,0.4751,0.4758,0.4764,0.4828,0.4842,0.4853,0,0,0,0,0,0.4112,0.419,0.4179,0.4199,0.4304,0.4443,0.4459,0.4477,0.44,0.4482,0.4482,0.4447,0.4612,0.4572,0.4586,0.4623,0.4748,0.4756,0.4763,0.4822,0.4839,0.4853,0,0,0,0,0,0,0.4129,0.4198,0.4188,0.4286,0.4381,0.4445,0.4502,0.4489,0.4549,0.452,0.4511,0.4524,0.4629,0.4629,0.4583,0.4719,0.4667,0.4679,0.4707,0.4723,0.4736,0.4743,0.4525,0,0,0,0,0,0.4141,0.4203,0.4286,0.437,0.4413,0.4446,0.4491,0.451,0.4562,0.4582,0.4613,0.4631,0.4675,0.4699,0.4767,0.4844,0.485,0.4874,0.4886,0.4897,0.4916,0.499,0.5011,0.4793,0.4793,0.4793,0,0,0.417,0.4213,0.4251,0.4375,0.4424,0.4509,0.4472,0.4569,0.4612,0.4585,0.4665,0.4702,0.4716,0.4812,0.4853,0.4809,0.4959,0.4907,0.4915,0.4929,0.5001,0.5021,0.504,0.4799,0.4798,0.4797,0,0,0.4265,0.4301,0.4383,0.4456,0.4548,0.4578,0.4607,0.4694,0.4715,0.4808,0.4781,0.4854,0.4921,0.4954,0.4959,0.5087,0.5043,0.5086,0.5133,0.5205,0.5223,0.5238,0.5246,0.5262,0.5067,0.5067,0.5067,0,0.4302,0.4377,0.4441,0.453,0.4558,0.4602,0.4675,0.4734,0.4841,0.4849,0.4851,0.4946,0.4988,0.5042,0.5098,0.5115,0.5122,0.5062,0.5219,0.5235,0.525,0.5255,0.5271,0.5071,0.5071,0.507,0.507,0,0.4432,0.4489,0.4551,0.4639,0.4713,0.4792,0.4858,0.4927,0.4919,0.4949,0.5038,0.5113,0.515,0.5181,0.5181,0.5292,0.525,0.5242,0.517,0.5275,0.5274,0.529,0.5077,0.5076,0.5075,0.5074,0,0,0.4499,0.4613,0.4622,0.4638,0.4744,0.4812,0.4893,0.4967,0.4969,0.5089,0.5106,0.5235,0.5251,0.5266,0.5283,0.536,0.5487,0.5349,0.5351,0.5338,0.56,0.5437,0.5437,0.5496,0.55,0.5503,0.5545,0,0.4561,0.4682,0.4723,0.4807,0.4857,0.4892,0.4951,0.5019,0.5059,0.512,0.518,0.5239,0.528,0.5295,0.5392,0.5485,0.5538,0.5474,0.5517,0.5518,0.5345,0.5455,0.5159,0.5161,0.556,0.5563,0.5565,0,0.4629,0.4689,0.4769,0.4812,0.4836,0.489,0.4917,0.4984,0.5071,0.5101,0.5174,0.5225,0.5368,0.5378,0.5577,0.5529,0.5579,0.5636,0.5638,0.5477,0.5387,0.5129,0.5175,0.5035,0.5589,0.5587,0.5585,0,0.4571,0.4689,0.4716,0.4744,0.4841,0.4851,0.4888,0.4965,0.4987,0.5089,0.5115,0.5267,0.5335,0.5476,0.5624,0.5605,0.5817,0.5786,0.5666,0.5651,0.5406,0.5363,0.5305,0.5905,0.5904,0.5904,0.5904,0,0.4572,0.4589,0.4684,0.4704,0.4713,0.4798,0.4809,0.4864,0.4937,0.4963,0.5095,0.5149,0.5375,0.5509,0.5632,0.5708,0.5818,0.57,0.5673,0.5417,0.5376,0.5246,0.522,0.5906,0.5905,0.5905,0.5905,0,0.4493,0.4559,0.4585,0.467,0.4686,0.4685,0.474,0.4757,0.484,0.4881,0.4914,0.5091,0.526,0.5442,0.5663,0.5675,0.5614,0.5765,0.5421,0.5352,0.5054,0.5043,0.4854,0.4733,0.5619,0.5616,0.5613,0,0.4458,0.4472,0.453,0.4536,0.4565,0.4587,0.4601,0.4685,0.4709,0.4836,0.4852,0.5015,0.5108,0.5346,0.5411,0.5526,0.546,0.5288,0.5207,0.5014,0.4985,0.4863,0.4769,0.4901,0.4893,0.4886,0.488,0,0.4385,0.4394,0.442,0.4438,0.4446,0.4447,0.4482,0.4479,0.4578,0.4625,0.4705,0.4787,0.4945,0.4924,0.5041,0.5096,0.4998,0.5141,0.5053,0.4517,0.4273,0.4147,0.4873,0.4818,0.4824,0.4829,0.4832,0.4835,0.4303,0.4289,0.4326,0.4326,0.4327,0.4298,0.4255,0.4305,0.4307,0.4326,0.4502,0.4488,0.4533,0.4635,0.4654,0.442,0.454,0.4293,0.4325,0.4242,0.4029,0.459,0.4438,0.4442,0.4445,0.4448,0.4451,0,0.4219,0.4226,0.4224,0.4197,0.4148,0.4193,0.4165,0.4098,0.4053,0.4076,0.4124,0.4011,0.3933,0.3934,0.378,0.3645,0.3531,0.3574,0.3353,0.333,0.3907,0.3778,0.3338,0.3338,0.3338,0.3339,0.3339,0.3339,0.4181,0.4155,0.4155,0.4043,0.4014,0.3882,0.384,0.3751,0.3704,0.354,0.339,0.3423,0.3471,0.3406,0.3191,0.3111,0.2945,0.2754,0.2886,0.3301,0.3371,0.3437,0.3309,0.2778,0.2777,0.2109,0.2104,0.2101]},{"header":{"parameterUnit":"m.s-1","parameterCategory":2,"la1":30.2991,"la2":30.254,"lo1":-89.0895,"lo2":-89.0444,"dy":0.0017,"dx":0.0017,"nx":28,"ny":28,"refTime":"2024-07-16T03:00:00:Z","depth":"0","parameterNumber":3,"parameterNumberName":"V-component_of_CURRENTS"},"data":[0,0,0,0,0,0,0,0,0,0,0,0,0,0,0,0,0,0,0,0,0,0,0,0,0,0,0,0,0,0,0,0,0,0,0,0,0,0,0,0,0,0,0,0,0,0,0,0,0,0,0,0,0,0,0,0,0,0,0.0361,0.0361,0,0.0361,0.0361,0.036,0.0312,0.0311,0.031,0.0309,0.0264,0.0264,0.0263,0,0,0,0,0,0,0,0,0,0,0,0,0,0.034,0.034,0.0361,0.0361,0.0361,0.0361,0.036,0.036,0.0313,0.0311,0.031,0.0309,0.0264,0.0264,0.0263,0,0,0,0,0,0,0,0,0,0,0,0,0,0.0343,0.034,0.0361,0.0339,0.0337,0.0361,0.036,0.036,0.0313,0.0311,0.031,0.0308,0.0264,0.0264,0.0263,0.0293,0,0,0.0262,0.0262,0,0,0,0,0,0,0,0,0.0343,0.0343,0.0342,0.034,0.0339,0.0337,0.0336,0.0336,0.0313,0.032,0.0309,0.0307,0.0287,0.0284,0.0285,0.0291,0.0289,0.0262,0.0262,0.0262,0.0262,0,0,0,0,0,0,0,0.0343,0.0343,0.0358,0.0342,0.034,0.0336,0.0335,0.0336,0.0309,0.0319,0.0316,0.032,0.0285,0.0286,0.0284,0.0288,0.0262,0.0262,0.0262,0.0262,0.035,0.0352,0,0,0,0,0,0,0.0348,0.0343,0.0358,0.0359,0.0339,0.0338,0.0336,0.0337,0.031,0.0306,0.0322,0.0318,0.0287,0.0284,0.0282,0.0365,0.0262,0.0262,0.0261,0.0347,0.035,0.0353,0,0,0,0,0,0,0.0347,0.0349,0.0358,0.0353,0.0354,0.034,0.0342,0.0338,0.0343,0.0313,0.0307,0.0331,0.0286,0.0282,0.031,0.036,0.0261,0.0261,0.0344,0.0348,0.0352,0.0498,0,0,0,0,0,0,0.0347,0.0349,0.036,0.0353,0.0354,0.0403,0.0344,0.0339,0.0349,0.0344,0.0319,0.0313,0.0284,0.0311,0.031,0.0358,0.0261,0.0341,0.0346,0.035,0.049,0.0507,0.0521,0,0,0,0,0,0.0346,0.0378,0.036,0.0363,0.0367,0.0405,0.0407,0.0389,0.0351,0.0381,0.0359,0.0314,0.0339,0.0313,0.0311,0.036,0.0339,0.0344,0.035,0.0483,0.0503,0.052,0,0,0,0,0,0,0.0386,0.0376,0.0357,0.0385,0.0404,0.0399,0.0419,0.0402,0.0407,0.0394,0.0351,0.0346,0.039,0.0357,0.0329,0.04,0.033,0.0336,0.0432,0.0451,0.0466,0.0497,0.026,0,0,0,0,0,0.0398,0.0411,0.041,0.0439,0.0443,0.0429,0.0441,0.0433,0.0433,0.0432,0.0419,0.0404,0.0413,0.0417,0.0419,0.046,0.0436,0.0489,0.0504,0.0517,0.0542,0.0574,0.0595,0.0372,0.0372,0.0372,0,0,0.0423,0.0419,0.0428,0.0448,0.0447,0.0491,0.0432,0.0463,0.0505,0.0429,0.0479,0.0461,0.0437,0.0487,0.0503,0.0465,0.0563,0.0525,0.0536,0.0554,0.0583,0.0604,0.0624,0.0376,0.0375,0.0374,0,0,0.0494,0.0473,0.0511,0.0529,0.0545,0.0545,0.0559,0.0567,0.0571,0.0619,0.0576,0.0599,0.0603,0.0611,0.0608,0.0711,0.0646,0.0699,0.0801,0.0833,0.0852,0.0868,0.0843,0.0856,0.0704,0.0704,0.0705,0,0.0525,0.0565,0.0537,0.0583,0.0607,0.0575,0.0636,0.0649,0.0673,0.0694,0.0655,0.0694,0.067,0.0738,0.0771,0.0749,0.0732,0.0733,0.0854,0.087,0.0884,0.0855,0.0867,0.0712,0.0711,0.071,0.071,0,0.0624,0.0657,0.0684,0.0722,0.0754,0.0801,0.081,0.0845,0.0834,0.0846,0.0907,0.0886,0.0908,0.0905,0.0868,0.0962,0.0905,0.0872,0.0809,0.0916,0.0877,0.0887,0.0723,0.072,0.0718,0.0716,0,0,0.0692,0.074,0.0753,0.0787,0.0825,0.0864,0.0934,0.0995,0.1042,0.106,0.1135,0.1151,0.1126,0.1124,0.1085,0.1111,0.1182,0.1042,0.104,0.102,0.1217,0.1132,0.1134,0.1172,0.1175,0.1178,0.114,0,0.0779,0.0877,0.0887,0.0996,0.1043,0.1042,0.1113,0.1161,0.1181,0.1248,0.1238,0.1288,0.1212,0.1225,0.1248,0.123,0.1221,0.1193,0.1115,0.1112,0.1027,0.1148,0.1042,0.0997,0.1149,0.1151,0.1152,0,0.0873,0.0927,0.1034,0.1114,0.1135,0.1198,0.1286,0.1349,0.1419,0.1434,0.1478,0.1462,0.1531,0.1426,0.1446,0.1434,0.1333,0.1285,0.1282,0.1166,0.1049,0.092,0.1009,0.0811,0.1167,0.1166,0.1165,0,0.0925,0.103,0.1113,0.1142,0.1231,0.1283,0.1335,0.1408,0.1475,0.1559,0.1619,0.1661,0.1708,0.1646,0.1556,0.1509,0.1547,0.146,0.1267,0.1256,0.1134,0.1108,0.1029,0.1425,0.1425,0.1425,0.1425,0,0.1005,0.1079,0.114,0.1189,0.1298,0.134,0.1456,0.1508,0.1607,0.1725,0.1719,0.1825,0.1771,0.1776,0.1639,0.1523,0.1609,0.1318,0.1269,0.1176,0.1156,0.0948,0.0868,0.1424,0.1424,0.1424,0.1425,0,0.1053,0.1094,0.1189,0.1284,0.1322,0.1396,0.1521,0.1609,0.1693,0.1852,0.1895,0.1991,0.201,0.1897,0.1816,0.1641,0.1391,0.1415,0.1287,0.1225,0.084,0.0773,0.0661,0.0589,0.1211,0.1209,0.1207,0,0.1089,0.1138,0.1238,0.1296,0.1342,0.145,0.1536,0.1639,0.1747,0.1965,0.2065,0.2133,0.2212,0.2061,0.1754,0.1492,0.1321,0.1187,0.1074,0.0841,0.0731,0.0673,0.0618,0.0947,0.0944,0.0941,0.0939,0,0.1146,0.1163,0.1232,0.134,0.1433,0.1553,0.1688,0.179,0.1954,0.2117,0.2356,0.2448,0.2268,0.2017,0.1622,0.1404,0.1038,0.1114,0.0931,0.0586,0.0465,0.0364,0.091,0.0912,0.0915,0.0917,0.0918,0.0919,0.1167,0.121,0.1278,0.1392,0.1502,0.1658,0.1774,0.1952,0.2168,0.2455,0.2553,0.2676,0.2244,0.1707,0.1417,0.0728,0.0805,0.05,0.0454,0.0429,0.0327,0.0797,0.0713,0.0714,0.0716,0.0717,0.0718,0,0.1176,0.1231,0.1331,0.1464,0.159,0.1654,0.1881,0.2031,0.2307,0.2551,0.2782,0.2531,0.2002,0.1422,0.0532,0.0135,0.0013,-0.0056,-0.0169,-0.0178,0.0271,0.0222,-0.0041,-0.0041,-0.004,-0.004,-0.004,-0.004,0.1179,0.1254,0.1314,0.1511,0.1619,0.1812,0.1952,0.2206,0.2398,0.2647,0.2642,0.2665,0.2124,0.0749,-0.0208,-0.0405,-0.0603,-0.0692,-0.0709,-0.0446,-0.0398,-0.0353,-0.0418,-0.0811,-0.0812,-0.1181,-0.1184,-0.1187]}],[{"header":{"parameterUnit":"m.s-1","parameterCategory":2,"la1":30.2991,"la2":30.254,"lo1":-89.0895,"lo2":-89.0444,"dy":0.0017,"dx":0.0017,"nx":28,"ny":28,"refTime":"2024-07-16T03:00:00:Z","depth":"2","parameterNumber":2,"parameterNumberName":"U-component_of_CURRENTS"},"data":[0,0,0,0,0,0,0,0,0,0,0,0,0,0,0,0,0,0,0,0,0,0,0,0,0,0,0,0,0,0,0,0,0,0,0,0,0,0,0,0,0,0,0,0,0,0,0,0,0,0,0,0,0,0,0,0,0,0,0.3025,0.3026,0,0.3078,0.3078,0.3077,0.3091,0.3092,0.3093,0.3094,0.3042,0.304,0.3038,0,0,0,0,0,0,0,0,0,0,0,0,0,0.2966,0.2965,0.3024,0.3026,0.3028,0.3078,0.3078,0.3077,0.3091,0.3092,0.3093,0.3094,0.3043,0.304,0.3038,0,0,0,0,0,0,0,0,0,0,0,0,0,0.2989,0.2965,0.3024,0.3052,0.3056,0.3078,0.3078,0.3077,0.3091,0.3092,0.3094,0.3095,0.3044,0.3041,0.3037,0.2986,0,0,0.3027,0.3025,0,0,0,0,0,0,0,0,0.2987,0.2989,0.3046,0.305,0.3055,0.3092,0.3039,0.3046,0.309,0.3062,0.3094,0.3096,0.3057,0.3053,0.3041,0.2984,0.2982,0.3026,0.3024,0.3023,0.3022,0,0,0,0,0,0,0,0.2986,0.2987,0.3031,0.3048,0.3054,0.3074,0.3077,0.304,0.3038,0.3065,0.307,0.3098,0.3057,0.3044,0.304,0.2981,0.3026,0.3023,0.3021,0.302,0.3253,0.3261,0,0,0,0,0,0,0.3004,0.2985,0.303,0.3034,0.304,0.3075,0.3077,0.3067,0.3041,0.3043,0.3097,0.3099,0.3049,0.3044,0.3038,0.31,0.3023,0.302,0.3018,0.3245,0.3255,0.3264,0,0,0,0,0,0,0.3002,0.3006,0.3028,0.3025,0.3031,0.3075,0.3063,0.3068,0.3087,0.3069,0.3066,0.3118,0.305,0.3043,0.3097,0.3094,0.3018,0.3015,0.3235,0.3248,0.3259,0.3145,0,0,0,0,0,0,0.2999,0.3003,0.3017,0.3025,0.3033,0.3038,0.3063,0.3068,0.3108,0.3111,0.3085,0.308,0.3051,0.3104,0.3094,0.3088,0.3012,0.3225,0.3241,0.3255,0.3138,0.3152,0.3164,0,0,0,0,0,0.2996,0.3013,0.3015,0.3024,0.3042,0.3039,0.3041,0.307,0.3108,0.3096,0.3154,0.3083,0.3198,0.3105,0.3092,0.3084,0.3217,0.3236,0.3254,0.3133,0.3149,0.3163,0,0,0,0,0,0,0.2997,0.3017,0.302,0.3042,0.3039,0.3047,0.307,0.3087,0.3117,0.3163,0.3131,0.313,0.3188,0.3208,0.3106,0.3238,0.3217,0.3234,0.3131,0.3146,0.3158,0.3264,0.3009,0,0,0,0,0,0.3003,0.3017,0.3022,0.3038,0.3043,0.3058,0.3075,0.3101,0.3133,0.3148,0.3144,0.3209,0.325,0.3254,0.3294,0.3313,0.3359,0.3345,0.3357,0.3366,0.347,0.3449,0.3462,0.3325,0.3324,0.3324,0,0,0.2995,0.3029,0.3025,0.3041,0.3049,0.306,0.3067,0.3112,0.3157,0.3138,0.3205,0.3227,0.3283,0.3329,0.3359,0.3332,0.345,0.339,0.3393,0.3496,0.3468,0.348,0.3489,0.3337,0.3335,0.3333,0,0,0.3027,0.3023,0.3055,0.3043,0.3095,0.3103,0.312,0.3147,0.3192,0.3307,0.3292,0.3371,0.3438,0.344,0.3468,0.3605,0.352,0.3593,0.3691,0.3663,0.3669,0.3676,0.3778,0.3794,0.3584,0.3584,0.3584,0,0.3073,0.3051,0.306,0.3086,0.3084,0.3122,0.3133,0.3185,0.3242,0.3286,0.3374,0.3528,0.3539,0.3557,0.3635,0.3616,0.3613,0.3565,0.3658,0.3666,0.3674,0.3777,0.3796,0.3581,0.3581,0.3581,0.3582,0,0.3053,0.3079,0.3092,0.3125,0.3128,0.3138,0.3195,0.3255,0.3381,0.3437,0.3573,0.3652,0.3755,0.374,0.3747,0.3771,0.3758,0.3647,0.356,0.3677,0.3785,0.3805,0.3576,0.3577,0.3578,0.3579,0,0,0.3056,0.3091,0.3084,0.3118,0.3138,0.3151,0.3243,0.3305,0.3401,0.3556,0.3682,0.3816,0.3867,0.3921,0.3861,0.3868,0.3929,0.3791,0.379,0.3799,0.3927,0.3702,0.3705,0.3727,0.373,0.3732,0.3981,0,0.3049,0.3109,0.3096,0.3136,0.3165,0.3196,0.3269,0.3356,0.3499,0.3632,0.3772,0.3897,0.3914,0.3969,0.398,0.3908,0.398,0.3882,0.3909,0.3918,0.3613,0.3719,0.3411,0.3583,0.4002,0.4006,0.4008,0,0.2983,0.3057,0.31,0.3186,0.3192,0.3238,0.3344,0.3423,0.3591,0.3725,0.3877,0.3963,0.4058,0.4083,0.413,0.4023,0.4062,0.4045,0.4048,0.3911,0.3729,0.3548,0.3607,0.4044,0.4041,0.4039,0.4036,0,0.2956,0.3028,0.3079,0.3081,0.3198,0.3265,0.3336,0.3471,0.3551,0.378,0.3899,0.4013,0.4143,0.4153,0.4175,0.4141,0.421,0.4138,0.4026,0.4015,0.3823,0.3785,0.4278,0.4277,0.4277,0.4276,0.4275,0,0.2906,0.2953,0.3098,0.3134,0.3219,0.3302,0.3417,0.3527,0.3687,0.3769,0.3944,0.4049,0.4157,0.4187,0.42,0.4156,0.4238,0.4133,0.4052,0.3786,0.3744,0.4195,0.4182,0.4285,0.4283,0.4281,0.428,0,0.2857,0.2931,0.303,0.3183,0.3229,0.3307,0.3437,0.3513,0.3691,0.382,0.3899,0.4097,0.4145,0.4185,0.4233,0.4189,0.4152,0.4131,0.3878,0.376,0.4028,0.4009,0.413,0.4124,0.4119,0.4114,0.4111,0,0.2832,0.2901,0.3055,0.3087,0.3165,0.3287,0.3346,0.352,0.3579,0.3807,0.3845,0.4006,0.4026,0.4025,0.3959,0.3943,0.4062,0.3692,0.3604,0.41,0.401,0.3999,0.3987,0.3375,0.3366,0.3358,0.3352,0,0.2814,0.2886,0.2942,0.3029,0.3104,0.3162,0.3276,0.3309,0.3495,0.3573,0.3649,0.3692,0.3768,0.359,0.3577,0.3524,0.3643,0.3535,0.4074,0.3394,0.3385,0.3297,0.3311,0.3283,0.329,0.3295,0.3299,0.3302,0.2762,0.2793,0.2866,0.2911,0.2977,0.3005,0.3019,0.3094,0.3135,0.3182,0.3313,0.3288,0.3332,0.3152,0.3015,0.2987,0.327,0.3178,0.3204,0.3238,0.3039,0.3012,0.2817,0.2821,0.2824,0.2827,0.283,0,0.265,0.2705,0.2733,0.2769,0.2757,0.2882,0.2916,0.2821,0.2784,0.2879,0.2857,0.2601,0.2495,0.2587,0.2441,0.2417,0.2422,0.2336,0.2348,0.2416,0.2477,0.224,0.1807,0.1804,0.1801,0.1798,0,0,0.258,0.255,0.256,0.2506,0.2578,0.2554,0.2561,0.24,0.2385,0.225,0.2283,0.2357,0.2515,0.2132,0.2051,0.193,0.2161,0.1846,0.2668,0.2751,0.2808,0.2962,0.2671,0,0,0,0,0]},{"header":{"parameterUnit":"m.s-1","parameterCategory":2,"la1":30.2991,"la2":30.254,"lo1":-89.0895,"lo2":-89.0444,"dy":0.0017,"dx":0.0017,"nx":28,"ny":28,"refTime":"2024-07-16T03:00:00:Z","depth":"2","parameterNumber":3,"parameterNumberName":"V-component_of_CURRENTS"},"data":[0,0,0,0,0,0,0,0,0,0,0,0,0,0,0,0,0,0,0,0,0,0,0,0,0,0,0,0,0,0,0,0,0,0,0,0,0,0,0,0,0,0,0,0,0,0,0,0,0,0,0,0,0,0,0,0,0,0,0.0077,0.0077,0,0.0054,0.0053,0.0052,0.0018,0.0018,0.0019,0.0019,-0.0155,-0.0159,-0.0164,0,0,0,0,0,0,0,0,0,0,0,0,0,0.0066,0.0066,0.0077,0.0077,0.0078,0.0054,0.0053,0.0052,0.0018,0.0018,0.0019,0.0019,-0.0153,-0.0159,-0.0164,0,0,0,0,0,0,0,0,0,0,0,0,0,0.0052,0.0066,0.0077,0.0064,0.0063,0.0054,0.0053,0.0052,0.0018,0.0018,0.0019,0.0019,-0.0151,-0.0158,-0.0165,-0.0211,0,0,-0.0186,-0.019,0,0,0,0,0,0,0,0,0.0053,0.0052,0.0065,0.0065,0.0064,0.0046,-0.0014,-0.0041,0.0018,0.0027,0.0019,0.0019,-0.0097,-0.0108,-0.0121,-0.0219,-0.0227,-0.0187,-0.0191,-0.0194,-0.0196,0,0,0,0,0,0,0,0.0054,0.0053,0.006,0.0066,0.0065,0.0051,0.0048,-0.0019,-0.0044,0.0026,0.0026,0.0035,-0.0099,-0.0114,-0.0126,-0.0229,-0.0187,-0.0193,-0.0198,-0.02,-0.0344,-0.0343,0,0,0,0,0,0,0.0073,0.0054,0.0061,0.006,0.0067,0.0051,0.0048,0.0045,-0.004,-0.0049,0.0035,0.0034,-0.0102,-0.0118,-0.0132,-0.021,-0.0194,-0.0201,-0.0205,-0.0344,-0.0343,-0.0343,0,0,0,0,0,0,0.0073,0.0074,0.0062,0.0063,0.0062,0.0052,0.0049,0.0045,0.0032,-0.003,-0.0044,0.0027,-0.0103,-0.0122,-0.0171,-0.0216,-0.0204,-0.0211,-0.0344,-0.0344,-0.0343,-0.0354,0,0,0,0,0,0,0.0072,0.0073,0.007,0.0064,0.0063,0.0042,0.0049,0.0045,0.0041,0.0039,-0.0042,-0.0058,-0.0104,-0.016,-0.0178,-0.0226,-0.0216,-0.0345,-0.0344,-0.0343,-0.0354,-0.0354,-0.0353,0,0,0,0,0,0.0072,0.0081,0.0069,0.0071,0.006,0.0041,0.0037,0.0027,0.0041,0.0018,-0.0004,-0.0055,-0.0168,-0.0165,-0.0187,-0.0237,-0.0345,-0.0344,-0.0344,-0.0354,-0.0354,-0.0353,0,0,0,0,0,0,0.0081,0.0079,0.0066,0.0074,0.0049,0.0038,0.0039,0.003,-0.0004,0.0003,-0.0053,-0.0072,-0.0124,-0.0167,-0.0162,-0.0268,-0.0265,-0.0268,-0.0266,-0.0266,-0.0266,-0.0235,-0.0222,0,0,0,0,0,0.0081,0.008,0.0065,0.0067,0.0064,0.0049,0.0043,0.0032,0.0012,-0.0002,-0.0045,-0.0088,-0.0138,-0.0187,-0.0225,-0.0302,-0.028,-0.0342,-0.0341,-0.0341,-0.0326,-0.0331,-0.033,-0.034,-0.034,-0.034,0,0,0.0079,0.0087,0.008,0.0068,0.006,0.0043,0.0044,0.0038,0.0019,-0.0019,-0.0049,-0.0082,-0.0145,-0.021,-0.0242,-0.026,-0.0317,-0.034,-0.034,-0.0324,-0.033,-0.0329,-0.0328,-0.0339,-0.0339,-0.0339,0,0,0.0078,0.009,0.0076,0.0066,0.0059,0.005,0.0049,0.0033,0.0018,-0.0017,-0.0036,-0.0085,-0.0164,-0.0224,-0.0264,-0.0287,-0.0293,-0.0304,-0.0319,-0.0325,-0.0325,-0.0324,-0.0255,-0.0248,-0.0333,-0.0333,-0.0333,0,0.0065,0.0071,0.0066,0.006,0.0075,0.0055,0.0051,0.0019,-0.0012,-0.0004,-0.0025,-0.0093,-0.0174,-0.0244,-0.0264,-0.0295,-0.0256,-0.0326,-0.0326,-0.0325,-0.0324,-0.0254,-0.0246,-0.0334,-0.0334,-0.0334,-0.0334,0,0.0058,0.0058,0.0065,0.005,0.005,0.0055,0.0031,0.0018,0.0015,0.0002,-0.0031,-0.012,-0.0162,-0.0215,-0.0266,-0.0311,-0.0266,-0.0304,-0.033,-0.0324,-0.0249,-0.0241,-0.0334,-0.0334,-0.0334,-0.0334,0,0,0.004,0.005,0.0055,0.0066,0.0065,0.0073,0.0051,0.0046,0.0067,0.0002,0.0032,-0.0112,-0.013,-0.0174,-0.0251,-0.0296,-0.0285,-0.0308,-0.0309,-0.0241,-0.0223,-0.0323,-0.0322,-0.032,-0.032,-0.032,-0.0158,0,0.0033,0.0041,0.0053,0.0068,0.0078,0.0088,0.0085,0.008,0.0073,0.0091,0.0006,-0.0006,-0.0129,-0.0149,-0.0219,-0.026,-0.0269,-0.032,-0.0235,-0.0231,-0.0326,-0.0321,-0.0303,-0.0171,-0.015,-0.0149,-0.0148,0,0.0018,0.0045,0.0058,0.0118,0.0129,0.0125,0.0184,0.0177,0.0181,0.0187,0.0148,0.0118,0.0024,-0.0057,-0.0142,-0.0161,-0.0185,-0.0214,-0.0209,-0.0295,-0.0319,-0.0182,-0.0157,-0.0134,-0.0135,-0.0136,-0.0137,0,0.003,0.0057,0.0088,0.0104,0.0144,0.0163,0.0186,0.0203,0.0253,0.0251,0.0316,0.0206,0.0202,0.0101,-0.0054,-0.006,-0.0101,-0.011,-0.0193,-0.0195,-0.0162,-0.0166,-0.0111,-0.0111,-0.0112,-0.0112,-0.0113,0,0.0042,0.0066,0.0092,0.0114,0.0192,0.0196,0.0274,0.0286,0.0342,0.046,0.036,0.044,0.0245,0.0179,0.0033,-0.0093,-0.0043,-0.0174,-0.018,-0.0163,-0.0168,-0.0137,-0.0142,-0.0106,-0.0107,-0.0109,-0.011,0,0.0047,0.0053,0.0101,0.0159,0.0188,0.0243,0.0359,0.043,0.0456,0.0611,0.0632,0.0644,0.0573,0.0346,0.0221,0.0051,-0.0087,-0.013,-0.0082,-0.0091,-0.0154,-0.0161,-0.0118,-0.0121,-0.0123,-0.0125,-0.0126,0,0.005,0.0063,0.015,0.0218,0.0245,0.0332,0.0419,0.0475,0.0584,0.0762,0.0873,0.086,0.0865,0.0583,0.0269,0.0001,-0.0048,-0.0137,-0.0188,-0.0154,-0.0163,-0.0166,-0.0171,-0.0088,-0.0089,-0.009,-0.0091,0,0.0088,0.0103,0.0173,0.03,0.0394,0.0528,0.0652,0.0771,0.09,0.1035,0.1237,0.1249,0.1002,0.0719,0.027,0.0088,-0.0127,-0.0161,-0.0127,-0.0148,-0.0131,-0.0139,-0.0142,-0.0099,-0.0098,-0.0098,-0.0097,-0.0097,0.014,0.0198,0.0289,0.0424,0.0544,0.0729,0.0869,0.1049,0.1265,0.1469,0.1454,0.1459,0.1096,0.0544,0.0204,-0.0129,-0.0094,-0.0212,-0.0206,-0.0199,-0.0284,-0.0279,-0.0282,-0.0283,-0.0283,-0.0283,-0.0283,0,0.0232,0.0294,0.0421,0.0594,0.0753,0.0783,0.1047,0.1193,0.1491,0.1606,0.1677,0.1318,0.098,0.0605,0.0123,-0.0204,-0.0203,-0.0295,-0.0215,-0.0207,-0.0199,-0.0282,-0.028,-0.0281,-0.0281,-0.0281,0,0,0.0289,0.0427,0.0494,0.0763,0.0868,0.1092,0.1253,0.1476,0.1617,0.1728,0.1709,0.1488,0.107,0.0697,0.026,0.0026,-0.0008,-0.0032,-0.0008,0.0145,0.0158,-0.0137,-0.0256,0,0,0,0,0]}],[{"header":{"parameterUnit":"m.s-1","parameterCategory":2,"la1":30.2991,"la2":30.254,"lo1":-89.0895,"lo2":-89.0444,"dy":0.0017,"dx":0.0017,"nx":28,"ny":28,"refTime":"2024-07-16T03:00:00:Z","depth":"4","parameterNumber":2,"parameterNumberName":"U-component_of_CURRENTS"},"data":[0,0,0,0,0,0,0,0,0,0,0,0,0,0,0,0,0,0,0,0,0,0,0,0,0,0,0,0,0,0,0,0,0,0,0,0,0,0,0,0,0,0,0,0,0,0,0,0,0,0,0,0,0,0,0,0,0,0,0.1361,0.1361,0,0.1353,0.1352,0.1352,0.1394,0.1395,0.1397,0.1398,0.1426,0.1425,0.1424,0,0,0,0,0,0,0,0,0,0,0,0,0,0.1352,0.1352,0.1361,0.1361,0.1362,0.1353,0.1352,0.1352,0.1393,0.1395,0.1397,0.1399,0.1426,0.1425,0.1424,0,0,0,0,0,0,0,0,0,0,0,0,0,0.1348,0.1352,0.1361,0.1384,0.1386,0.1353,0.1352,0.1352,0.1393,0.1395,0.1398,0.14,0.1426,0.1425,0.1424,0.1371,0,0,0.1421,0.142,0,0,0,0,0,0,0,0,0.1348,0.1347,0.138,0.1382,0.1385,0.138,0.1359,0.1361,0.1392,0.1387,0.1398,0.1401,0.1414,0.1414,0.1402,0.1373,0.1374,0.1421,0.142,0.142,0.1419,0,0,0,0,0,0,0,0.1348,0.1348,0.1354,0.138,0.1383,0.1374,0.1376,0.1359,0.1385,0.1387,0.1391,0.1395,0.1416,0.1403,0.1403,0.1374,0.1421,0.142,0.1419,0.1419,0.1421,0.1421,0,0,0,0,0,0,0.1357,0.1348,0.1355,0.1354,0.1376,0.1372,0.1375,0.1376,0.1385,0.1389,0.1393,0.1397,0.1403,0.1404,0.1404,0.1457,0.142,0.1419,0.1418,0.142,0.1421,0.1421,0,0,0,0,0,0,0.1357,0.1357,0.1355,0.1354,0.1354,0.1371,0.1372,0.1375,0.1406,0.139,0.1395,0.1428,0.1405,0.1406,0.1418,0.1455,0.1418,0.1417,0.1419,0.142,0.1421,0.149,0,0,0,0,0,0,0.1356,0.1357,0.137,0.1355,0.1354,0.134,0.137,0.1373,0.1404,0.141,0.142,0.1422,0.1407,0.1419,0.1417,0.1453,0.1417,0.1418,0.142,0.1421,0.1487,0.1493,0.1498,0,0,0,0,0,0.1356,0.1353,0.137,0.1372,0.1368,0.1339,0.1337,0.1355,0.1404,0.1397,0.1422,0.1424,0.1426,0.1418,0.1415,0.1452,0.1418,0.1419,0.1421,0.1484,0.1492,0.1498,0,0,0,0,0,0,0.1344,0.1357,0.1375,0.1376,0.1365,0.1348,0.1352,0.1376,0.139,0.1416,0.1421,0.1422,0.1452,0.1433,0.1424,0.1455,0.1427,0.1428,0.1476,0.1483,0.1489,0.1491,0.1416,0,0,0,0,0,0.135,0.1361,0.1358,0.1357,0.136,0.1369,0.1371,0.1381,0.1387,0.1399,0.1416,0.1433,0.1444,0.1452,0.1447,0.1451,0.1461,0.1476,0.1482,0.1487,0.1486,0.1546,0.1558,0.1426,0.1426,0.1426,0,0,0.1336,0.1354,0.1354,0.1357,0.1359,0.135,0.1375,0.1378,0.1392,0.1397,0.1437,0.1454,0.1451,0.1465,0.1478,0.1461,0.1528,0.1489,0.1493,0.149,0.1549,0.1562,0.1574,0.1427,0.1427,0.1427,0,0,0.1303,0.1341,0.1333,0.1331,0.1345,0.1353,0.1368,0.1377,0.1407,0.1417,0.1455,0.1486,0.1488,0.1501,0.1506,0.1535,0.1561,0.1556,0.1586,0.1645,0.1657,0.1667,0.1695,0.1708,0.1556,0.1556,0.1556,0,0.1274,0.1293,0.1319,0.1312,0.133,0.1365,0.1362,0.1377,0.1395,0.1437,0.1435,0.1504,0.1495,0.155,0.1561,0.155,0.159,0.1563,0.1655,0.1666,0.1676,0.1702,0.1715,0.1559,0.1559,0.1559,0.1558,0,0.1241,0.1256,0.1253,0.1275,0.129,0.1291,0.1326,0.1365,0.1422,0.1449,0.1526,0.1523,0.1573,0.1581,0.1573,0.1658,0.1667,0.1663,0.1643,0.1694,0.1717,0.1729,0.1564,0.1563,0.1562,0.1561,0,0,0.1151,0.1214,0.1215,0.1239,0.1286,0.1289,0.1341,0.1398,0.1466,0.1492,0.1579,0.1593,0.1643,0.1651,0.1677,0.1714,0.1801,0.1727,0.1729,0.1764,0.1941,0.1807,0.1808,0.1846,0.1848,0.185,0.1929,0,0.1112,0.1118,0.1173,0.1189,0.1199,0.1278,0.1328,0.1395,0.1467,0.1553,0.1603,0.1678,0.1659,0.1713,0.175,0.1791,0.1839,0.1779,0.1877,0.1878,0.1763,0.1819,0.1858,0.1938,0.1941,0.1943,0.1945,0,0.1062,0.1087,0.1104,0.1191,0.1208,0.1237,0.1376,0.142,0.155,0.1617,0.1713,0.1768,0.1842,0.182,0.1911,0.1892,0.1927,0.1943,0.1947,0.1804,0.1768,0.1876,0.1967,0.1965,0.1963,0.1962,0.1961,0,0.1005,0.1044,0.1082,0.1098,0.1186,0.1247,0.1321,0.145,0.1525,0.1687,0.1765,0.1862,0.193,0.1981,0.2001,0.1991,0.2092,0.2074,0.1988,0.1978,0.2046,0.2033,0.216,0.216,0.216,0.2159,0.2159,0,0.0949,0.0969,0.1064,0.1071,0.1146,0.1229,0.1334,0.1435,0.1582,0.1678,0.1808,0.1889,0.1985,0.2047,0.2052,0.2041,0.2136,0.1999,0.1996,0.207,0.2059,0.2054,0.2041,0.2162,0.2162,0.2161,0.2161,0,0.0866,0.0925,0.096,0.1068,0.1115,0.1172,0.1333,0.1404,0.1568,0.1702,0.1767,0.1937,0.2015,0.2073,0.2153,0.2094,0.2099,0.2085,0.2153,0.2152,0.1935,0.1924,0.1987,0.1983,0.198,0.1977,0.1975,0,0.0826,0.0833,0.0945,0.0989,0.1045,0.1146,0.1221,0.1387,0.1472,0.1703,0.1759,0.1912,0.2,0.2004,0.2064,0.2074,0.2059,0.2056,0.199,0.1929,0.1922,0.1916,0.191,0.197,0.1969,0.1968,0.1967,0,0.0736,0.0788,0.0825,0.0921,0.1002,0.1075,0.1202,0.1254,0.1449,0.1601,0.1732,0.18,0.1892,0.1931,0.1968,0.1964,0.204,0.2021,0.2027,0.1965,0.1909,0.1903,0.1901,0.1956,0.1957,0.1958,0.1959,0,0.0682,0.069,0.0761,0.0846,0.0927,0.0986,0.1066,0.1183,0.1285,0.155,0.1575,0.1738,0.1874,0.1876,0.189,0.1888,0.1859,0.1804,0.1821,0.1835,0.1743,0.1646,0.1618,0,0,0,0,0,0.0629,0.0636,0.0689,0.0762,0.0836,0.0896,0.1043,0.113,0.1314,0.1374,0.1481,0.1563,0.1637,0.1708,0.1672,0.179,0.1838,0.1739,0.1776,0.1892,0.1905,0.1809,0,0,0,0,0,0,0.059,0.0621,0.0649,0.0673,0.071,0.0783,0.087,0.1004,0.1057,0.1256,0.1303,0.1455,0.1536,0.1627,0.1633,0.1652,0.1644,0.1833,0.183,0.1884,0.1896,0.1907,0.1813,0,0,0,0,0]},{"header":{"parameterUnit":"m.s-1","parameterCategory":2,"la1":30.2991,"la2":30.254,"lo1":-89.0895,"lo2":-89.0444,"dy":0.0017,"dx":0.0017,"nx":28,"ny":28,"refTime":"2024-07-16T03:00:00:Z","depth":"4","parameterNumber":3,"parameterNumberName":"V-component_of_CURRENTS"},"data":[0,0,0,0,0,0,0,0,0,0,0,0,0,0,0,0,0,0,0,0,0,0,0,0,0,0,0,0,0,0,0,0,0,0,0,0,0,0,0,0,0,0,0,0,0,0,0,0,0,0,0,0,0,0,0,0,0,0,0.0122,0.0122,0,0.0106,0.0105,0.0105,0.0081,0.0081,0.0081,0.008,0.001,0.0008,0.0007,0,0,0,0,0,0,0,0,0,0,0,0,0,0.0097,0.0097,0.0122,0.0122,0.0122,0.0106,0.0105,0.0105,0.0081,0.0081,0.008,0.008,0.0011,0.0009,0.0007,0,0,0,0,0,0,0,0,0,0,0,0,0,0.0093,0.0097,0.0122,0.0112,0.0111,0.0106,0.0105,0.0105,0.0081,0.0081,0.008,0.008,0.0012,0.0009,0.0006,-0.001,0,0,-0.0002,-0.0003,0,0,0,0,0,0,0,0,0.0093,0.0093,0.0113,0.0112,0.0112,0.0099,0.0071,0.0065,0.0081,0.0087,0.008,0.008,0.0038,0.0033,0.0025,-0.0013,-0.0016,-0.0002,-0.0004,-0.0005,-0.0006,0,0,0,0,0,0,0,0.0093,0.0094,0.0111,0.0113,0.0112,0.0096,0.0095,0.0069,0.0059,0.0087,0.0086,0.0091,0.0036,0.0027,0.0023,-0.0017,-0.0002,-0.0005,-0.0007,-0.0008,-0.0116,-0.0117,0,0,0,0,0,0,0.0106,0.0094,0.0112,0.0111,0.0107,0.0097,0.0096,0.01,0.006,0.0056,0.0091,0.009,0.0032,0.0026,0.002,-0.0001,-0.0005,-0.0008,-0.0009,-0.0115,-0.0116,-0.0118,0,0,0,0,0,0,0.0106,0.0108,0.0113,0.0106,0.0106,0.0098,0.0102,0.0099,0.009,0.0065,0.0059,0.0085,0.0032,0.0024,0.0002,-0.0004,-0.0009,-0.0012,-0.0113,-0.0115,-0.0117,-0.0043,0,0,0,0,0,0,0.0105,0.0108,0.0108,0.0107,0.0107,0.0114,0.0102,0.0099,0.0095,0.0093,0.0057,0.0051,0.0031,0.0006,-0.0001,-0.0008,-0.0014,-0.0112,-0.0114,-0.0116,-0.0044,-0.0042,-0.0041,0,0,0,0,0,0.0104,0.0112,0.0108,0.011,0.011,0.0114,0.0112,0.0103,0.0095,0.0093,0.0071,0.0052,-0.0014,0.0004,-0.0004,-0.0012,-0.0111,-0.0114,-0.0116,-0.0045,-0.0043,-0.0041,0,0,0,0,0,0,0.0098,0.011,0.0106,0.0116,0.0116,0.0112,0.0115,0.0104,0.0085,0.0085,0.0052,0.0044,0.0013,-0.0014,0.0007,-0.0057,-0.0073,-0.0077,-0.0016,-0.0014,-0.0012,-0.0009,-0.0016,0,0,0,0,0,0.0099,0.011,0.0113,0.0121,0.0126,0.0118,0.0116,0.0113,0.0102,0.0093,0.0068,0.0031,-0.0006,-0.0018,-0.0056,-0.0075,-0.012,-0.0095,-0.0093,-0.0091,-0.0099,-0.0174,-0.0179,-0.0127,-0.0127,-0.0127,0,0,0.01,0.0108,0.0113,0.012,0.0122,0.0138,0.0116,0.0125,0.0128,0.0088,0.0078,0.0037,-0.0013,-0.0039,-0.0056,-0.0057,-0.0128,-0.0095,-0.0092,-0.0101,-0.0178,-0.0183,-0.0187,-0.0129,-0.0128,-0.0128,0,0,0.012,0.0116,0.0137,0.0143,0.0155,0.0152,0.0155,0.0152,0.0139,0.0129,0.0089,0.0046,0.0006,-0.0035,-0.0061,-0.0078,-0.0122,-0.0095,-0.0071,-0.0144,-0.0148,-0.0153,-0.0197,-0.0206,-0.0086,-0.0086,-0.0086,0,0.0125,0.0149,0.0141,0.0167,0.0178,0.0162,0.0186,0.0172,0.0157,0.0143,0.0134,0.0041,0.0003,-0.0047,-0.0052,-0.0073,-0.0111,-0.0063,-0.0138,-0.0144,-0.015,-0.0195,-0.0206,-0.0083,-0.0083,-0.0084,-0.0084,0,0.0163,0.0183,0.0199,0.0226,0.0229,0.025,0.024,0.023,0.0212,0.0192,0.0136,0.0077,0.0021,-0.0005,-0.0027,-0.0092,-0.0104,-0.0128,-0.0133,-0.015,-0.0197,-0.0209,-0.0078,-0.0079,-0.008,-0.0081,0,0,0.0185,0.0222,0.023,0.0252,0.0265,0.0276,0.0275,0.0266,0.0261,0.0217,0.0189,0.0112,0.007,0.0033,-0.0018,-0.008,-0.0144,-0.0111,-0.0116,-0.0135,-0.0285,-0.0237,-0.0246,-0.0175,-0.0178,-0.018,-0.0292,0,0.0225,0.0283,0.0285,0.0333,0.0362,0.0344,0.0345,0.0327,0.0297,0.0263,0.0178,0.0135,0.0088,0.0061,-0.0011,-0.0122,-0.0178,-0.0111,-0.0284,-0.0289,-0.0228,-0.026,-0.0187,-0.0302,-0.0305,-0.0307,-0.0309,0,0.0266,0.0301,0.0359,0.039,0.04,0.0423,0.0416,0.0416,0.0359,0.033,0.0261,0.0194,0.0091,0.0056,-0.0135,-0.0087,-0.0178,-0.0261,-0.0268,-0.026,-0.0265,-0.0292,-0.0332,-0.0331,-0.0329,-0.0327,-0.0326,0,0.029,0.0349,0.0397,0.0413,0.0444,0.0461,0.0472,0.044,0.0439,0.0372,0.0352,0.022,0.0154,0.0005,-0.0159,-0.015,-0.0367,-0.0377,-0.042,-0.0417,-0.0456,-0.0451,-0.051,-0.051,-0.051,-0.0509,-0.0509,0,0.0331,0.037,0.042,0.0452,0.0507,0.0507,0.0542,0.0529,0.0501,0.0495,0.0395,0.0339,0.0135,-0.0008,-0.0156,-0.0324,-0.0367,-0.0426,-0.0451,-0.042,-0.041,-0.0464,-0.0457,-0.0514,-0.0513,-0.0512,-0.0511,0,0.0352,0.0385,0.0448,0.0502,0.0527,0.0567,0.0615,0.0628,0.0599,0.0582,0.0565,0.0417,0.0231,0.0034,-0.0216,-0.0303,-0.0479,-0.0525,-0.0464,-0.0482,-0.0478,-0.0466,-0.0582,-0.0581,-0.0581,-0.058,-0.058,0,0.0367,0.0405,0.0493,0.0535,0.0573,0.0634,0.0673,0.0682,0.0693,0.0622,0.0609,0.0442,0.0324,0.0007,-0.0198,-0.0461,-0.049,-0.0556,-0.0532,-0.0476,-0.049,-0.0479,-0.0468,-0.0579,-0.0579,-0.0579,-0.0579,0,0.0398,0.0432,0.0485,0.058,0.0646,0.071,0.0767,0.0783,0.0773,0.0749,0.0637,0.0474,0.0271,0.0018,-0.0176,-0.0369,-0.0505,-0.0552,-0.0554,-0.0532,-0.0475,-0.0486,-0.0476,-0.0577,-0.0577,-0.0577,-0.0578,0,0.0415,0.0458,0.0532,0.0611,0.0693,0.0755,0.0788,0.0794,0.0805,0.0735,0.0688,0.0465,0.033,0.0065,-0.013,-0.0298,-0.0334,-0.0364,-0.0377,-0.0381,-0.0283,-0.0178,-0.0219,0,0,0,0,0,0.0429,0.0477,0.0552,0.0638,0.0717,0.0768,0.0829,0.0846,0.0844,0.0781,0.074,0.055,0.0265,0.012,-0.0041,-0.0118,-0.0361,-0.0308,-0.0401,-0.0567,-0.0569,-0.0483,0,0,0,0,0,0,0.0435,0.0509,0.055,0.0644,0.07,0.0791,0.0833,0.0836,0.0797,0.0761,0.0597,0.0534,0.0238,0.0346,-0.0045,-0.0097,-0.0168,-0.0446,-0.0448,-0.0566,-0.0568,-0.057,-0.0482,0,0,0,0,0]}]]